Theta_e
333 333 332 332 332 332 332 331 331 330 328 327 328 329 329 329 329 328 328 329 328 327 327 326 327 326 327 326 325 322 324 324 324 324 326 328 328 326 328 328 330 331 331
332 332 331 331 331 330 330 329 329 327 327 328 329 330 330 329 329 329 329 328 325 325 326 327 327 327 327 327 326 324 324 324 325 325 326 327 326 325 324 325 327 328 326
331 331 331 330 329 329 329 329 327 328 328 328 327 327 328 329 329 330 330 329 327 326 325 326 326 326 326 326 327 326 324 324 325 324 324 323 323 324 323 323 323 321 321
330 329 329 329 329 329 329 328 328 328 328 326 327 329 329 330 329 329 330 329 328 325 326 326 325 325 327 326 325 325 325 324 323 323 322 321 321 321 322 319 319 319 319
330 329 329 329 329 329 328 328 326 325 326 327 329 329 329 326 329 330 329 330 327 324 325 326 326 326 327 326 325 324 324 323 323 322 320 320 320 320 319 318 318 317 318
330 330 329 329 329 328 327 326 326 326 328 330 329 328 326 326 330 329 328 326 326 326 327 327 327 327 325 325 324 324 324 323 322 321 320 320 320 319 318 318 317 317 316
331 330 329 329 329 328 327 326 326 326 327 329 328 328 324 328 330 329 326 327 327 327 327 327 327 326 325 324 324 323 323 323 322 321 320 320 319 318 318 318 318 317 316
332 331 330 330 328 327 327 327 326 326 327 329 328 326 324 329 330 329 328 327 327 327 327 326 326 325 324 323 323 323 323 322 321 320 320 319 319 318 318 318 317 316 315
332 331 331 328 328 327 326 326 326 327 328 328 327 325 325 329 330 329 328 326 326 326 325 325 325 324 323 323 322 322 322 322 321 321 320 319 319 319 318 318 316 316 315
332 331 329 328 326 326 327 325 327 327 327 327 326 325 325 330 330 329 327 326 325 324 324 324 324 323 322 323 323 322 321 321 321 320 319 319 319 319 319 319 318 316 316
332 331 328 327 326 326 326 326 327 327 328 327 326 325 326 329 330 329 326 325 325 323 323 323 322 322 322 323 323 322 321 321 321 320 319 320 319 319 319 318 317 314 316
331 331 328 327 326 327 327 327 328 328 327 326 325 325 326 329 330 328 328 325 325 324 323 322 322 322 322 322 322 322 322 321 320 320 319 319 320 319 320 319 317 314 317
331 330 329 327 327 328 328 329 329 328 328 326 324 325 326 327 329 329 327 325 325 324 323 322 323 322 322 322 322 322 322 321 320 320 319 320 321 320 320 319 318 315 316
330 329 329 328 328 328 328 329 328 328 328 326 324 322 325 326 328 327 326 325 325 324 323 323 322 322 322 321 320 321 321 321 321 320 320 320 320 319 319 318 317 317 316
329 329 328 328 328 328 329 329 329 328 329 328 327 326 326 326 327 327 327 326 325 325 323 322 322 322 319 319 320 321 322 322 321 321 321 320 320 319 320 321 319 319 321
328 328 328 328 328 328 328 328 329 329 329 328 328 327 326 328 329 329 327 326 325 325 323 323 322 320 320 320 321 320 321 321 321 321 321 320 319 318 317 319 319 321 322
328 328 328 328 328 329 328 328 326 327 329 329 329 328 327 329 329 328 327 326 325 324 323 323 323 322 322 322 321 321 321 322 322 321 321 321 320 318 316 316 317 319 320
328 328 328 329 329 329 328 327 328 326 323 325 329 329 326 328 328 328 327 325 324 324 323 323 323 323 323 323 322 321 321 322 322 321 321 321 320 319 318 319 319 320 321
328 328 328 329 329 330 327 326 326 324 323 324 328 329 327 326 327 327 326 325 323 322 322 322 322 323 323 322 322 321 323 323 322 322 321 320 319 320 322 322 323 323 323
327 328 329 329 329 329 327 325 323 322 322 325 327 329 327 326 326 326 326 325 325 326 325 324 324 324 324 323 323 324 323 323 323 323 322 322 322 322 322 323 323 323 323
327 328 329 329 329 329 329 326 325 324 323 323 324 328 330 329 327 327 327 326 325 325 325 325 325 325 324 325 324 323 324 323 323 323 323 323 322 322 323 323 324 325 325
327 327 328 329 329 329 329 329 328 327 326 324 323 322 324 328 327 326 326 327 327 327 326 325 324 325 325 325 325 325 325 325 324 323 323 323 323 323 323 323 324 324 324
324 326 327 327 328 328 328 329 329 329 328 328 325 322 321 323 327 328 328 327 326 327 327 327 327 325 323 323 323 324 324 323 323 324 324 324 323 323 323 322 322 322 321
323 323 323 325 326 326 327 327 328 328 329 329 328 327 326 325 323 324 326 327 328 327 326 326 326 326 327 326 326 325 324 324 325 326 325 324 323 323 323 322 321 321 321
318 320 322 324 323 320 322 322 323 324 324 325 326 326 326 325 324 325 325 324 325 325 326 326 326 325 324 324 324 324 324 325 327 326 324 324 324 325 324 324 323 322 321
308 309 311 312 315 317 319 320 321 321 322 321 320 319 319 323 324 324 323 323 323 324 324 324 324 325 325 325 324 324 323 322 322 322 324 325 324 324 323 323 323 322 321
Wind_Speed
25 25 24 22 21 20 18 15 13 12 12 12 9 7 4 3 3 5 6 6 8 6 9 8 8 8 9 11 14 15 9 8 6 5 8 11 12 14 15 19 27 31 37
27 26 24 21 19 17 14 13 12 14 12 10 8 4 2 3 5 5 6 9 12 13 9 7 5 8 8 10 13 16 16 11 12 10 13 12 20 23 29 32 34 36 41
27 26 22 19 16 15 14 13 14 12 11 8 5 3 3 4 5 7 10 11 13 14 12 9 8 8 9 11 11 14 18 16 19 16 11 18 21 29 32 33 35 35 38
25 22 19 18 15 14 13 14 12 12 9 5 4 6 2 1 5 8 6 10 13 11 7 8 9 10 10 11 13 17 23 21 20 21 20 21 23 27 33 31 28 37 36
22 19 17 15 14 13 14 13 12 9 6 7 11 6 2 2 6 6 5 7 11 8 6 6 9 9 7 10 19 25 28 25 23 21 20 20 22 23 29 28 29 32 31
20 16 15 16 15 15 13 12 12 9 8 9 8 6 3 4 6 6 8 11 10 7 5 7 9 9 11 13 18 26 27 30 27 21 23 21 20 23 31 33 36 28 10
15 14 14 16 16 16 14 13 10 8 9 9 8 4 3 4 6 7 8 8 9 9 11 13 12 12 13 17 22 23 25 23 26 30 27 26 26 32 33 29 29 21 16
15 15 16 16 17 15 14 11 9 7 9 10 8 4 2 5 5 7 8 10 11 10 10 12 16 17 18 23 25 24 23 21 25 24 27 28 32 33 35 31 31 25 25
14 17 18 18 17 15 14 11 9 9 10 10 7 5 3 5 7 9 11 11 11 10 10 12 14 16 23 27 31 31 29 26 24 27 30 34 37 38 37 35 27 27 14
16 19 20 19 17 16 14 13 11 10 9 9 9 5 4 6 8 8 11 12 13 13 13 11 12 20 27 30 32 33 29 30 30 32 31 34 35 34 32 29 31 23 17
15 19 20 17 16 14 13 12 10 11 11 11 9 7 6 5 8 8 11 13 15 16 19 19 22 23 27 29 30 31 31 33 34 34 33 32 28 28 27 23 26 30 21
16 18 18 17 15 12 11 11 10 11 13 12 11 9 7 6 8 10 9 13 14 19 21 22 23 22 26 27 27 29 32 34 32 30 28 27 28 24 21 19 22 22 9
18 19 18 16 14 12 13 12 11 12 14 12 9 7 6 6 9 10 12 14 14 19 22 22 21 19 21 22 26 30 32 31 29 26 24 27 27 22 17 16 16 19 13
19 19 17 16 13 12 11 10 10 11 12 10 7 7 7 8 11 12 15 15 16 20 23 21 19 19 20 26 27 26 27 30 31 28 26 26 24 19 18 18 17 18 17
21 21 18 15 14 13 9 8 8 8 8 11 9 10 12 10 13 14 16 18 20 24 25 22 20 21 25 23 19 19 22 26 24 23 24 25 23 23 19 17 15 15 9
20 21 21 18 16 14 12 9 7 5 6 4 4 7 9 8 12 13 14 17 20 24 22 19 17 19 18 20 16 16 17 21 22 24 23 24 24 24 21 17 15 14 13
24 23 22 20 18 16 13 12 10 6 6 6 5 5 6 10 11 12 14 18 22 23 19 17 17 19 17 18 16 13 16 19 20 22 24 24 25 23 25 20 19 17 16
23 24 26 24 22 19 17 14 11 10 7 7 10 8 8 9 11 14 15 20 22 21 19 18 18 20 20 17 17 16 16 20 20 20 23 24 25 22 21 18 18 19 18
23 22 25 26 24 22 18 15 12 9 6 9 13 12 12 11 12 14 16 22 19 17 18 18 21 22 20 19 21 18 21 24 25 24 24 26 25 23 19 18 18 22 20
24 24 26 26 25 22 19 17 14 11 8 10 13 15 17 16 18 19 20 20 21 22 21 19 21 22 22 22 22 23 22 24 26 28 27 26 25 23 20 20 19 19 22
24 23 24 24 25 25 24 22 20 15 13 12 14 17 20 22 22 24 24 24 23 23 24 24 23 24 23 22 20 21 22 23 26 25 24 26 26 24 27 25 23 22 22
17 20 22 23 22 23 25 25 24 21 18 16 15 14 16 23 20 22 24 26 27 26 26 26 26 26 26 26 26 27 27 28 30 31 32 32 32 33 31 29 27 27 27
11 14 17 21 20 19 20 24 25 25 24 23 21 18 18 21 24 24 26 27 28 29 30 30 30 31 30 30 30 30 31 32 33 33 34 35 35 35 35 32 31 29 28
20 10 4 8 13 14 16 20 22 23 25 24 24 23 23 24 25 27 29 29 29 30 31 32 33 34 34 35 36 36 36 36 36 36 35 36 37 38 38 35 33 33 32
25 22 23 20 15 1 5 9 12 15 17 18 20 21 23 23 24 27 29 30 31 32 33 34 35 36 36 37 38 39 40 39 41 42 43 43 42 41 39 36 34 32 33
25 25 25 29 28 25 23 21 20 19 16 14 10 9 13 18 21 23 25 26 29 31 33 35 37 38 38 39 40 41 42 42 43 43 44 42 43 41 36 37 36 33 32
Wind_Direction
138 136 133 134 139 146 153 156 161 165 164 161 164 172 186 241 257 258 257 238 237 241 238 222 226 208 205 210 208 205 183 154 134 122 139 152 148 137 145 148 154 152 157
136 135 134 136 143 148 152 158 163 154 158 159 158 169 227 266 272 259 250 220 218 203 235 222 204 186 187 202 208 208 196 173 140 138 135 125 134 133 127 133 138 146 148
141 138 142 144 147 149 152 154 155 157 163 166 177 225 210 270 289 284 257 231 210 199 219 218 189 184 186 190 193 180 172 162 144 142 117 118 121 137 121 127 133 132 138
146 148 152 157 156 152 154 156 159 164 170 192 197 149 152 326 318 315 316 210 193 186 183 193 197 201 199 187 170 162 157 138 136 124 119 121 123 129 132 121 117 125 132
158 164 169 163 158 156 160 165 162 160 165 168 149 143 111 12 357 34 78 155 168 175 185 190 193 202 202 181 166 157 150 136 130 125 121 127 129 136 134 128 117 121 130
170 174 171 171 167 161 160 166 168 164 166 155 143 136 85 32 35 81 112 134 144 165 176 166 153 144 151 166 165 166 158 145 142 138 137 138 132 131 133 135 129 131 121
169 176 177 175 168 164 160 155 158 164 172 154 154 134 80 51 75 104 126 130 125 127 144 150 143 144 146 149 150 153 153 148 151 149 145 146 138 140 135 134 137 140 136
178 179 172 175 167 167 167 160 157 170 179 167 152 138 89 70 96 106 124 124 117 125 139 153 152 150 150 143 144 141 142 138 143 140 147 145 143 141 141 141 142 129 129
183 177 175 174 167 166 167 167 165 171 171 167 160 141 101 96 116 114 124 123 121 123 132 138 143 153 151 147 134 132 134 134 144 150 152 151 149 152 153 149 134 131 130
190 181 178 176 172 171 180 173 169 178 180 166 150 131 115 119 132 126 125 129 123 119 115 122 143 148 151 154 141 136 126 132 139 139 141 147 155 156 160 162 158 143 138
189 183 179 178 177 177 180 183 184 181 181 164 148 133 134 126 142 141 133 136 134 122 120 126 134 146 152 152 151 142 135 143 142 136 138 147 152 163 168 171 168 164 151
186 181 180 180 183 177 177 175 181 180 172 157 145 137 137 135 147 147 137 138 142 131 133 133 135 141 140 147 155 149 145 145 140 140 142 150 162 167 173 177 179 173 143
186 178 179 179 180 181 174 169 170 173 170 160 149 143 133 135 148 150 141 139 145 139 142 138 137 140 145 149 148 150 151 146 143 145 156 166 173 172 167 171 179 186 193
184 178 180 181 173 173 180 180 165 162 161 161 150 155 152 147 146 147 148 146 150 141 143 139 138 138 146 145 147 154 156 160 158 163 170 173 172 172 174 178 181 194 212
189 183 184 185 179 171 173 179 175 173 176 179 185 176 164 166 166 163 158 153 155 149 144 142 139 135 138 148 152 152 161 168 169 171 172 172 177 178 177 177 186 192 202
186 187 189 185 183 178 171 163 174 163 165 165 169 181 182 170 161 163 163 157 158 158 149 144 137 143 148 159 158 166 169 177 181 182 179 182 183 187 190 194 203 209 218
192 192 193 188 185 182 186 183 169 155 170 170 159 164 174 170 173 170 168 164 161 167 157 158 159 163 163 167 176 175 180 187 187 190 192 195 196 196 203 210 219 229 238
198 199 195 196 195 194 195 197 193 178 166 177 175 165 164 168 168 167 166 164 164 177 179 175 177 183 188 186 189 189 194 191 194 200 200 201 202 205 212 221 226 233 241
197 200 201 202 203 203 201 199 202 197 165 162 164 167 167 168 176 174 177 179 178 187 192 192 195 195 194 196 202 202 203 200 202 204 207 211 214 217 225 231 236 241 244
203 205 205 205 204 205 205 205 209 208 186 175 179 178 174 173 176 183 192 197 200 202 204 205 202 204 207 209 210 212 212 210 212 214 215 219 224 229 234 239 240 243 251
207 204 207 206 207 209 209 212 215 213 211 204 202 200 199 192 193 197 200 205 211 214 215 216 214 215 217 220 220 219 220 220 221 222 223 228 230 232 239 243 248 251 254
210 211 202 208 211 210 216 220 222 224 227 227 222 214 213 210 213 212 215 218 221 224 225 226 228 229 228 226 226 226 226 228 231 233 235 237 239 242 243 245 249 253 255
183 204 210 213 219 220 220 223 226 230 234 237 240 230 217 218 223 228 231 233 232 233 234 234 235 237 237 237 237 235 235 236 237 237 237 238 240 243 246 245 246 246 245
82 104 164 218 223 222 226 231 235 236 238 241 245 245 241 239 237 239 243 245 245 246 244 244 243 243 244 243 243 243 244 245 246 245 245 245 246 249 250 247 245 245 246
64 60 62 54 50 347 259 252 256 256 258 260 265 267 268 265 261 258 257 257 257 255 255 254 252 253 253 252 252 252 252 250 248 248 248 247 247 247 245 245 246 247 246
60 57 56 59 50 49 53 56 55 54 50 40 17 333 298 289 287 285 283 279 274 271 268 267 266 265 263 261 260 259 260 260 259 256 254 246 247 244 243 245 247 246 249